National Weather Service United States Department of Commerce

Heavy Rainfall Threat Along the Texas and Louisiana Coast; Excessive Heat in the Northern Plains

A warm tropical airmass along the Western and Central Gulf Coast continues to bring a threat of heavy to excessive rainfall for the Middle and Upper Texas coast and southwestern Louisiana. Rounds of heavy rainfall will likely lead to flash flooding concerns. Another day of hot temperatures is in store for the northern High Plains. Maximum temperatures may reach or exceed 100 degrees. Read More >

                        
211
ASUS42 KCAE 251810
RWRCAE
REGIONAL WEATHER ROUNDUP
NATIONAL WEATHER SERVICE COLUMBIA SC
200 PM EDT THU JUL 25 2024

NOTE: "FAIR" INDICATES FEW OR NO CLOUDS BELOW 12,000 FEET WITH NO
SIGNIFICANT WEATHER AND/OR OBSTRUCTIONS TO VISIBILITY.

NOT ALL STATIONS ARE QUALITY CONTROLLED BY THE NATIONAL
WEATHER SERVICE. USE DATA WITH CAUTION...ESPECIALLY
DEWPOINT OBSERVATIONS.

SCZ001>059-115-116-135>137-GAZ040-063>065-077-251900-
...UPSTATE SOUTH CAROLINA...

CITY SKY/WX TMP DP RH WIND PRES REMARKS
ANDERSON PTSUNNY 82 72 71 CALM 30.16F
6HR MIN TEMP: 74; 6HR MAX TEMP: 83; 6HR PCP: TRACE;

LIBERTY CLOUDY 82 75 81 CALM 30.17F
6HR MIN TEMP: 72; 6HR MAX TEMP: 82; 6HR PCP: 0.07;

SPARTANBURG PTSUNNY 79 72 78 W5 30.17F
CLEMSON PTSUNNY 80 74 81 CALM 30.17F
6HR MIN TEMP: 72; 6HR MAX TEMP: 80; 6HR PCP: 0.01;

GREENVILLE PTSUNNY 80 72 76 VRB3 30.18F
6HR MIN TEMP: 72; 6HR MAX TEMP: 80;

GREENWOOD PTSUNNY 81 76 84 W5 30.17F
6HR MIN TEMP: 73; 6HR MAX TEMP: 83; 6HR PCP: 0.20;

GREER CLOUDY 81 72 74 VRB3 30.17F
6HR MIN TEMP: 72; 6HR MAX TEMP: 81; 6HR PCP: 0.22;

ROCK HILL HVY RAIN 75 75 100 NW6 30.18R VSB 1/2
6HR MIN TEMP: 74; 6HR MAX TEMP: 80; 6HR PCP: 0.41;

CHESTER CLOUDY 77 77 100 CALM 30.17F
LAURENS CLOUDY 81 73 78 CALM 30.16F


...CENTRAL SOUTH CAROLINA...

CITY SKY/WX TMP DP RH WIND PRES REMARKS
COLUMBIA APT PTSUNNY 85 77 77 S6 30.13F HX 95
6HR MIN TEMP: 74; 6HR MAX TEMP: 85; 6HR PCP: 0.01;

COLUMBIA OWENS PTSUNNY 84 75 74 SW6 30.14F
6HR MIN TEMP: 75; 6HR MAX TEMP: 86; 6HR PCP: 0.01;

ORANGEBURG PTSUNNY 85 76 74 S6 30.14F
6HR MIN TEMP: 75; 6HR MAX TEMP: 85; 6HR PCP: 0.01;

NEWBERRY LGT RAIN 79 77 94 CALM 30.18F
AIKEN PTSUNNY 85 75 74 W8 30.17F
6HR MIN TEMP: 74; 6HR MAX TEMP: 85; 6HR PCP: 0.11;

MANNING PTSUNNY 86 73 66 S3 30.14F
CAMDEN PTSUNNY 84 75 74 CALM 30.15F
LANCASTER PTSUNNY 79 77 94 SW7 30.16F
WINNSBORO CLOUDY 82 73 74 SW8 30.15F


...EASTERN AND COASTAL SOUTH CAROLINA...

CITY SKY/WX TMP DP RH WIND PRES REMARKS
MYRTLE BEACH PTSUNNY 82 78 88 S5 30.17F
6HR MIN TEMP: 77; 6HR MAX TEMP: 85; 6HR PCP: 0.02;

N MYRTLE BCH TSTM 80 76 87 SW9 30.16F FOG
6HR MIN TEMP: 78; 6HR MAX TEMP: 84; 6HR PCP: TRACE;

CONWAY PTSUNNY 86 75 70 S8 30.15F HX 95
MARION PTSUNNY 82 82 100 W6 30.15F HX 97
HARTSVILLE PTSUNNY 84 75 74 VRB5 30.15F
FLORENCE PTSUNNY 85 75 72 W6 30.14F
6HR MIN TEMP: 76; 6HR MAX TEMP: 85; 6HR PCP: TRACE;

DARLINGTON PTSUNNY 84 77 79 S8 30.15F
6HR MIN TEMP: 75; 6HR MAX TEMP: 84; 6HR PCP: TRACE;

CHARLESTON APT CLOUDY 83 76 79 CALM 30.15F
6HR MIN TEMP: 79; 6HR MAX TEMP: 89; 6HR PCP: 0.17;

MOUNT PLEASANT PTSUNNY 86 82 89 S7G15 30.15F THUNDER HX 105
WALTERBORO MOSUNNY 88 77 70 SW9 30.15F HX 100
BEAUFORT MOSUNNY 90 80 72 S6 30.15F HX 107
6HR MIN TEMP: 79; 6HR MAX TEMP: 90; 6HR PCP: 0.25;

HILTON HEAD SUNNY 84 81 89 SW5 30.16F HX 98


...EASTERN GEORGIA...

CITY SKY/WX TMP DP RH WIND PRES REMARKS
AUGUSTA BUSH F PTSUNNY 87 74 64 W6 30.12F HX 95
6HR MIN TEMP: 74; 6HR MAX TEMP: 87; 6HR PCP: 0.04;

AUGUSTA DANIEL MOSUNNY 86 74 67 NW8 30.15F
6HR MIN TEMP: 75; 6HR MAX TEMP: 86;

THOMSON PTSUNNY N/A N/A N/A CALM 30.14F
6HR MIN TEMP: 74; 6HR MAX TEMP: 84; 6HR PCP: 0.25;

WASHINGTON PTSUNNY 83 75 75 NW8 30.16F
6HR MIN TEMP: 73; 6HR MAX TEMP: 84; 6HR PCP: 0.24;

SYLVANIA PTSUNNY 88 80 75 CALM 30.15F HX 104
6HR MIN TEMP: 75; 6HR MAX TEMP: 88; 6HR PCP: 0.01;

STATESBORO PTSUNNY 87 73 63 SW6 30.14F
6HR MIN TEMP: 74; 6HR MAX TEMP: 88;

SAVANNAH PTSUNNY 87 72 60 S13 30.15F
6HR MIN TEMP: 78; 6HR MAX TEMP: 89;



...SOUTHERN NORTH CAROLINA...

CITY SKY/WX TMP DP RH WIND PRES REMARKS
CHARLOTTE HVY RAIN 74 72 93 CALM 30.17F FOG
6HR MIN TEMP: 74; 6HR MAX TEMP: 79; 6HR PCP: 0.28;

MONROE CLOUDY 80 75 84 SW8 30.16F
6HR MIN TEMP: 75; 6HR MAX TEMP: 80; 6HR PCP: 0.05;

WADESBORO PTSUNNY 81 75 82 SW7 30.16S
ROCKINGHAM CLOUDY 82 74 77 CALM 30.16S
RUTHERFORDTON CLOUDY 75 70 83 CALM 30.19F
ASHEVILLE LGT RAIN 76 68 76 N9 30.24F
6HR MIN TEMP: 69; 6HR MAX TEMP: 77; 6HR PCP: 0.23;


$$